Regional Weather Roundup
Issued by NWS Charleston, WV

Home | Current Version | Previous Version | Text Only | Print | Product List | Glossary Off
Versions: 1 2 3 4 5 6 7 8 9 10 11 12 13 14 15 16 17 18 19 20 21 22 23 24 25 26 27 28 29 30 31 32 33 34 35 36 37 38 39 40 41 42 43 44 45 46 47 48 49 50

000
ASUS41 KRLX 170710
RWRRLX
West Virginia Regional Weather Roundup
National Weather Service Charleston WV
200 AM EST WED DEC 17 2014

Note: "fair" indicates few or no clouds below 12,000 feet with no
significant weather and/or obstructions to visibility.

WVZ003-170800-
Northern Panhandle of West Virginia

CITY           SKY/WX    TMP DP  RH WIND       PRES   REMARKS
WHEELING       CLOUDY    39  36  89 W20G25    29.97R
$$

WVZ009-170800-
Northwest West Virginia

CITY           SKY/WX    TMP DP  RH WIND       PRES   REMARKS
PARKERSBURG    CLOUDY    41  38  89 W12       30.07R
$$

WVZ006-170800-
Western West Virginia

CITY           SKY/WX    TMP DP  RH WIND       PRES   REMARKS
HUNTINGTON     LGT RAIN  40  37  89 W8G17     30.10R
$$

WVZ015-170800-
West Central West Virginia

CITY           SKY/WX    TMP DP  RH WIND       PRES   REMARKS
CHARLESTON     LGT RAIN  42  38  85 W7        30.07R
$$

WVZ022-031-170800-
North Central West Virginia

CITY           SKY/WX    TMP DP  RH WIND       PRES   REMARKS
CLARKSBURG     LGT RAIN  41  39  93 W9        30.00R
MORGANTOWN     CLOUDY    42  36  79 VRB7      29.98S
$$

WVZ025-035-042-045-170800-
Southern West Virginia

CITY           SKY/WX    TMP DP  RH WIND       PRES   REMARKS
BECKLEY        LGT RAIN  38  36  92 W9        30.03R
LOGAN          MIX PCPN  39  39 100 SW9       30.07S
BLUEFIELD      CLOUDY    39  35  86 W14G24    30.03R
LEWISBURG      CLOUDY    41  37  85 W5        30.00S
$$

WVZ047-170800-
Northern Mountains of West Virginia

CITY           SKY/WX    TMP DP  RH WIND       PRES   REMARKS
ELKINS         CLOUDY    39  38  96 W7G18     29.99R
$$

WVZ052-170800-
Eastern Panhandle of West Virginia

CITY           SKY/WX    TMP DP  RH WIND       PRES   REMARKS
MARTINSBURG    MOCLDY    39  36  89 CALM      29.91R FOG
PETERSBURG     LGT RAIN  45  39  79 CALM      29.94S
$$


USA.gov is the U.S. government's official web portal to all federal, state and local government web resources and services.